Time,TemperatureF,DewpointF,PressureIn,WindDirection,WindDirectionDegrees,WindSpeedMPH,WindSpeedGustMPH,Humidity,HourlyPrecipIn,Conditions,Clouds,dailyrainin,SoftwareType,DateUTC
2013-01-14 00:00:00,49.4,48.3,30.02,West,259,0.0,1.0,96,0.00,,,0.00,Wunderground v.1.13,2013-01-14 05:00:00,
2013-01-14 00:05:00,49.2,48.1,30.02,West,259,0.0,1.0,96,0.00,,,0.00,Wunderground v.1.13,2013-01-14 05:05:00,
2013-01-14 00:15:00,49.4,48.3,30.02,West,259,0.0,1.0,96,0.00,,,0.00,Wunderground v.1.13,2013-01-14 05:15:00,
2013-01-14 00:25:00,49.2,48.1,30.02,West,259,0.0,1.0,96,0.00,,,0.00,Wunderground v.1.13,2013-01-14 05:25:00,
2013-01-14 00:30:00,49.1,48.0,30.02,South,178,0.0,1.0,96,0.00,,,0.00,Wunderground v.1.13,2013-01-14 05:30:00,
2013-01-14 00:35:00,49.1,48.0,30.01,South,184,1.0,3.0,96,0.00,,,0.00,Wunderground v.1.13,2013-01-14 05:35:00,
2013-01-14 00:40:00,48.9,47.8,30.02,South,184,0.0,3.0,96,0.00,,,0.00,Wunderground v.1.13,2013-01-14 05:40:00,
2013-01-14 00:50:00,48.9,47.8,30.02,South,184,0.0,4.0,96,0.00,,,0.00,Wunderground v.1.13,2013-01-14 05:50:00,
2013-01-14 00:55:00,48.9,47.8,30.02,South,184,0.0,4.0,96,0.00,,,0.00,Wunderground v.1.13,2013-01-14 05:55:00,
2013-01-14 01:05:00,49.1,48.0,30.02,South,184,0.0,0.0,96,0.00,,,0.00,Wunderground v.1.13,2013-01-14 06:05:00,
2013-01-14 01:10:00,49.1,48.0,30.02,South,184,0.0,0.0,96,0.00,,,0.00,Wunderground v.1.13,2013-01-14 06:10:00,
2013-01-14 01:20:00,49.1,48.0,30.01,SSE,167,0.0,2.0,96,0.00,,,0.00,Wunderground v.1.13,2013-01-14 06:20:00,
2013-01-14 01:30:00,49.1,48.0,30.02,South,178,0.0,2.0,96,0.00,,,0.00,Wunderground v.1.13,2013-01-14 06:30:00,
2013-01-14 01:40:00,49.1,48.0,30.02,South,178,0.0,3.0,96,0.00,,,0.00,Wunderground v.1.13,2013-01-14 06:40:00,
2013-01-14 01:50:00,49.1,48.0,30.02,South,178,0.0,3.0,96,0.00,,,0.00,Wunderground v.1.13,2013-01-14 06:50:00,
2013-01-14 01:55:00,48.8,47.7,30.02,South,178,0.0,3.0,96,0.00,,,0.00,Wunderground v.1.13,2013-01-14 06:55:00,
2013-01-14 02:05:00,48.5,47.4,30.02,South,178,0.0,3.0,96,0.00,,,0.00,Wunderground v.1.13,2013-01-14 07:05:00,
2013-01-14 02:10:00,48.3,47.2,30.02,South,178,0.0,3.0,96,0.00,,,0.00,Wunderground v.1.13,2013-01-14 07:10:00,
2013-01-14 02:20:00,48.2,47.1,30.02,South,178,0.0,2.0,96,0.00,,,0.00,Wunderground v.1.13,2013-01-14 07:20:00,
2013-01-14 02:30:00,48.2,47.1,30.02,South,178,0.0,2.0,96,0.00,,,0.00,Wunderground v.1.13,2013-01-14 07:30:00,
2013-01-14 02:40:00,48.0,46.9,30.02,South,178,0.0,3.0,96,0.00,,,0.00,Wunderground v.1.13,2013-01-14 07:40:00,
2013-01-14 02:45:00,48.0,46.9,30.02,South,178,0.0,3.0,96,0.00,,,0.00,Wunderground v.1.13,2013-01-14 07:45:00,
2013-01-14 02:55:00,47.9,46.8,30.02,South,178,0.0,3.0,96,0.00,,,0.00,Wunderground v.1.13,2013-01-14 07:55:00,
2013-01-14 03:05:00,47.7,46.6,30.01,South,178,0.0,3.0,96,0.00,,,0.00,Wunderground v.1.13,2013-01-14 08:05:00,
2013-01-14 03:10:00,47.9,46.8,30.01,South,178,0.0,3.0,96,0.00,,,0.00,Wunderground v.1.13,2013-01-14 08:10:00,
2013-01-14 03:15:00,48.0,46.9,30.01,South,178,0.0,3.0,96,0.00,,,0.00,Wunderground v.1.13,2013-01-14 08:15:00,
2013-01-14 03:25:00,48.0,46.9,30.01,South,178,0.0,2.0,96,0.00,,,0.00,Wunderground v.1.13,2013-01-14 08:25:00,
2013-01-14 03:35:00,48.2,47.1,30.00,South,178,0.0,4.0,96,0.00,,,0.00,Wunderground v.1.13,2013-01-14 08:35:00,
2013-01-14 03:40:00,48.2,47.1,30.00,South,178,0.0,4.0,96,0.00,,,0.00,Wunderground v.1.13,2013-01-14 08:40:00,
2013-01-14 03:50:00,48.3,47.2,30.00,South,178,0.0,3.0,96,0.00,,,0.00,Wunderground v.1.13,2013-01-14 08:50:00,
2013-01-14 03:55:00,48.5,47.4,30.00,South,178,0.0,3.0,96,0.00,,,0.00,Wunderground v.1.13,2013-01-14 08:55:00,
2013-01-14 04:05:00,48.6,47.5,30.00,South,178,0.0,3.0,96,0.00,,,0.00,Wunderground v.1.13,2013-01-14 09:05:00,
2013-01-14 04:15:00,48.6,47.5,29.99,South,178,0.0,3.0,96,0.00,,,0.00,Wunderground v.1.13,2013-01-14 09:15:00,
2013-01-14 04:20:00,48.8,47.7,29.99,South,178,0.0,2.0,96,0.00,,,0.00,Wunderground v.1.13,2013-01-14 09:20:00,
2013-01-14 04:30:00,48.8,47.7,30.00,South,178,0.0,2.0,96,0.00,,,0.00,Wunderground v.1.13,2013-01-14 09:30:00,
2013-01-14 04:35:00,48.9,47.8,30.00,South,178,0.0,1.0,96,0.00,,,0.00,Wunderground v.1.13,2013-01-14 09:35:00,
2013-01-14 04:40:00,48.9,47.8,30.00,South,178,0.0,1.0,96,0.00,,,0.00,Wunderground v.1.13,2013-01-14 09:40:00,
2013-01-14 04:50:00,48.9,47.8,29.99,South,178,0.0,2.0,96,0.00,,,0.00,Wunderground v.1.13,2013-01-14 09:50:00,
2013-01-14 04:55:00,48.9,47.8,29.99,South,178,0.0,2.0,96,0.00,,,0.00,Wunderground v.1.13,2013-01-14 09:55:00,
2013-01-14 05:05:00,49.1,48.0,29.99,South,178,0.0,1.0,96,0.00,,,0.00,Wunderground v.1.13,2013-01-14 10:05:00,
2013-01-14 05:15:00,48.9,47.8,30.00,South,178,0.0,1.0,96,0.00,,,0.00,Wunderground v.1.13,2013-01-14 10:15:00,
2013-01-14 05:20:00,48.9,47.8,29.99,South,178,0.0,0.0,96,0.00,,,0.00,Wunderground v.1.13,2013-01-14 10:20:00,
2013-01-14 05:30:00,48.8,47.7,29.98,South,178,0.0,1.0,96,0.00,,,0.00,Wunderground v.1.13,2013-01-14 10:30:00,
2013-01-14 05:40:00,48.3,47.2,29.98,South,178,0.0,2.0,96,0.00,,,0.00,Wunderground v.1.13,2013-01-14 10:40:00,
2013-01-14 05:50:00,48.2,47.1,30.00,South,178,0.0,1.0,96,0.00,,,0.00,Wunderground v.1.13,2013-01-14 10:50:00,
2013-01-14 05:55:00,48.0,46.9,29.97,South,178,0.0,2.0,96,0.00,,,0.00,Wunderground v.1.13,2013-01-14 10:55:00,
2013-01-14 06:05:00,47.9,46.8,29.97,South,177,1.0,3.0,96,0.00,,,0.00,Wunderground v.1.13,2013-01-14 11:05:00,
2013-01-14 06:15:00,47.7,46.6,29.96,South,171,2.0,2.0,96,0.00,,,0.00,Wunderground v.1.13,2013-01-14 11:15:00,
2013-01-14 06:20:00,48.0,46.9,29.98,SSE,164,2.0,5.0,96,0.00,,,0.00,Wunderground v.1.13,2013-01-14 11:20:00,
2013-01-14 06:30:00,48.3,47.2,29.99,South,178,0.0,5.0,96,0.00,,,0.00,Wunderground v.1.13,2013-01-14 11:30:00,
2013-01-14 06:40:00,48.8,47.7,29.98,NW,308,1.0,1.0,96,0.00,,,0.00,Wunderground v.1.13,2013-01-14 11:40:00,
2013-01-14 06:45:00,48.8,47.7,29.95,SE,127,3.0,3.0,96,0.00,,,0.00,Wunderground v.1.13,2013-01-14 11:45:00,
2013-01-14 06:55:00,49.1,48.0,29.98,SSW,199,2.0,7.0,96,0.00,,,0.00,Wunderground v.1.13,2013-01-14 11:55:00,
2013-01-14 07:05:00,49.4,48.3,30.00,WSW,252,2.0,2.0,96,0.00,,,0.00,Wunderground v.1.13,2013-01-14 12:05:00,
2013-01-14 07:15:00,49.5,48.4,30.02,WSW,252,1.0,1.0,96,0.00,,,0.00,Wunderground v.1.13,2013-01-14 12:15:00,
2013-01-14 07:20:00,49.5,48.4,30.02,WSW,252,0.0,4.0,96,0.00,,,0.00,Wunderground v.1.13,2013-01-14 12:20:00,
2013-01-14 07:30:00,49.8,49.0,30.02,WSW,252,0.0,4.0,97,0.00,,,0.00,Wunderground v.1.13,2013-01-14 12:30:00,
2013-01-14 07:35:00,49.9,49.1,30.02,WSW,252,0.0,2.0,97,0.00,,,0.00,Wunderground v.1.13,2013-01-14 12:35:00,
2013-01-14 07:45:00,50.1,49.3,30.03,WNW,296,1.0,1.0,97,0.00,,,0.00,Wunderground v.1.13,2013-01-14 12:45:00,
2013-01-14 07:55:00,50.2,49.4,30.03,WNW,296,0.0,3.0,97,0.00,,,0.00,Wunderground v.1.13,2013-01-14 12:55:00,
2013-01-14 08:00:00,50.4,49.6,30.03,WNW,296,0.0,3.0,97,0.00,,,0.00,Wunderground v.1.13,2013-01-14 13:00:00,
2013-01-14 08:10:00,50.5,49.7,30.03,WNW,296,0.0,3.0,97,0.00,,,0.00,Wunderground v.1.13,2013-01-14 13:10:00,
2013-01-14 08:20:00,50.5,49.7,30.03,WNW,296,0.0,2.0,97,0.00,,,0.00,Wunderground v.1.13,2013-01-14 13:20:00,
2013-01-14 08:25:00,50.8,50.0,30.04,WNW,296,0.0,2.0,97,0.00,,,0.00,Wunderground v.1.13,2013-01-14 13:25:00,
2013-01-14 08:35:00,50.8,50.0,30.04,WNW,296,0.0,3.0,97,0.00,,,0.00,Wunderground v.1.13,2013-01-14 13:35:00,
2013-01-14 08:45:00,51.1,50.3,30.05,WNW,296,0.0,3.0,97,0.00,,,0.00,Wunderground v.1.13,2013-01-14 13:45:00,
2013-01-14 08:50:00,51.1,50.3,30.05,WNW,296,0.0,0.0,97,0.00,,,0.00,Wunderground v.1.13,2013-01-14 13:50:00,
2013-01-14 08:55:00,51.3,50.5,30.06,WNW,296,0.0,0.0,97,0.00,,,0.00,Wunderground v.1.13,2013-01-14 13:55:00,
2013-01-14 09:05:00,51.6,50.8,30.06,WNW,296,0.0,1.0,97,0.00,,,0.00,Wunderground v.1.13,2013-01-14 14:05:00,
2013-01-14 09:10:00,51.7,50.9,30.07,WNW,296,0.0,1.0,97,0.00,,,0.00,Wunderground v.1.13,2013-01-14 14:10:00,
2013-01-14 09:20:00,52.2,51.4,30.07,WNW,296,0.0,0.0,97,0.00,,,0.00,Wunderground v.1.13,2013-01-14 14:20:00,
2013-01-14 09:30:00,52.8,52.0,30.07,WNW,296,0.0,0.0,97,0.00,,,0.00,Wunderground v.1.13,2013-01-14 14:30:00,
2013-01-14 09:35:00,53.3,52.5,30.07,WNW,296,0.0,1.0,97,0.00,,,0.00,Wunderground v.1.13,2013-01-14 14:35:00,
2013-01-14 09:40:00,53.8,53.0,30.09,WNW,296,0.0,1.0,97,0.00,,,0.00,Wunderground v.1.13,2013-01-14 14:40:00,
2013-01-14 09:50:00,54.5,53.7,30.09,WNW,296,0.0,2.0,97,0.00,,,0.00,Wunderground v.1.13,2013-01-14 14:50:00,
2013-01-14 10:00:00,56.0,55.2,30.09,West,277,3.0,3.0,97,0.00,,,0.00,Wunderground v.1.13,2013-01-14 15:00:00,
2013-01-14 10:05:00,56.3,55.5,30.08,WNW,293,4.0,12.0,97,0.00,,,0.00,Wunderground v.1.13,2013-01-14 15:05:00,
2013-01-14 10:15:00,56.5,55.7,30.09,WSW,242,4.0,4.0,97,0.00,,,0.00,Wunderground v.1.13,2013-01-14 15:15:00,
2013-01-14 10:20:00,56.5,55.7,30.09,West,269,3.0,3.0,97,0.00,,,0.00,Wunderground v.1.13,2013-01-14 15:20:00,
2013-01-14 10:30:00,56.5,55.7,30.09,WNW,288,4.0,8.0,97,0.00,,,0.00,Wunderground v.1.13,2013-01-14 15:30:00,
2013-01-14 10:35:00,56.5,55.7,30.08,WNW,285,4.0,4.0,97,0.00,,,0.00,Wunderground v.1.13,2013-01-14 15:35:00,
2013-01-14 10:45:00,56.6,55.5,30.08,West,274,3.0,10.0,96,0.00,,,0.00,Wunderground v.1.13,2013-01-14 15:45:00,
2013-01-14 10:55:00,56.6,55.5,30.08,WNW,290,6.0,6.0,96,0.00,,,0.00,Wunderground v.1.13,2013-01-14 15:55:00,
2013-01-14 11:00:00,56.6,55.5,30.08,West,262,5.0,5.0,96,0.00,,,0.00,Wunderground v.1.13,2013-01-14 16:00:00,
2013-01-14 11:05:00,56.5,55.1,30.08,WNW,290,4.0,4.0,95,0.00,,,0.00,Wunderground v.1.13,2013-01-14 16:05:00,
2013-01-14 11:15:00,56.6,55.2,30.08,West,281,4.0,11.0,95,0.00,,,0.00,Wunderground v.1.13,2013-01-14 16:15:00,
2013-01-14 11:20:00,56.6,54.9,30.07,NW,304,4.0,10.0,94,0.00,,,0.00,Wunderground v.1.13,2013-01-14 16:20:00,
2013-01-14 11:25:00,56.6,54.6,30.08,NW,319,5.0,5.0,93,0.00,,,0.00,Wunderground v.1.13,2013-01-14 16:25:00,
2013-01-14 11:35:00,56.7,53.8,30.09,West,279,6.0,11.0,90,0.00,,,0.00,Wunderground v.1.13,2013-01-14 16:35:00,
2013-01-14 11:40:00,56.9,53.4,30.08,WNW,294,6.0,6.0,88,0.00,,,0.00,Wunderground v.1.13,2013-01-14 16:40:00,
2013-01-14 11:50:00,56.7,52.6,30.08,NNW,335,5.0,5.0,86,0.00,,,0.00,Wunderground v.1.13,2013-01-14 16:50:00,
2013-01-14 11:55:00,56.9,52.4,30.09,WNW,302,5.0,13.0,85,0.00,,,0.00,Wunderground v.1.13,2013-01-14 16:55:00,
2013-01-14 12:05:00,57.0,51.9,30.07,WNW,292,4.0,4.0,83,0.00,,,0.00,Wunderground v.1.13,2013-01-14 17:05:00,
2013-01-14 12:10:00,57.0,51.9,30.07,WNW,296,4.0,4.0,83,0.00,,,0.00,Wunderground v.1.13,2013-01-14 17:10:00,
2013-01-14 12:20:00,57.2,51.8,30.07,NW,308,2.0,10.0,82,0.00,,,0.00,Wunderground v.1.13,2013-01-14 17:20:00,
2013-01-14 12:25:00,57.2,51.8,30.06,West,261,3.0,10.0,82,0.00,,,0.00,Wunderground v.1.13,2013-01-14 17:25:00,
2013-01-14 12:35:00,57.5,51.7,30.07,NW,309,3.0,9.0,81,0.00,,,0.00,Wunderground v.1.13,2013-01-14 17:35:00,
2013-01-14 12:45:00,57.6,51.1,30.07,West,272,4.0,9.0,79,0.00,,,0.00,Wunderground v.1.13,2013-01-14 17:45:00,
2013-01-14 12:50:00,58.0,51.2,30.07,North,350,4.0,12.0,78,0.00,,,0.00,Wunderground v.1.13,2013-01-14 17:50:00,
2013-01-14 13:00:00,58.4,51.2,30.08,WNW,300,5.0,5.0,77,0.00,,,0.00,Wunderground v.1.13,2013-01-14 18:00:00,
2013-01-14 13:05:00,58.7,50.1,30.08,NW,306,5.0,15.0,73,0.00,,,0.00,Wunderground v.1.13,2013-01-14 18:05:00,
2013-01-14 13:15:00,58.4,49.4,30.09,WNW,292,5.0,15.0,72,0.00,,,0.00,Wunderground v.1.13,2013-01-14 18:15:00,
2013-01-14 13:25:00,58.6,49.2,30.08,West,273,6.0,6.0,71,0.00,,,0.00,Wunderground v.1.13,2013-01-14 18:25:00,
2013-01-14 13:30:00,58.6,49.6,30.09,WNW,292,4.0,4.0,72,0.00,,,0.00,Wunderground v.1.13,2013-01-14 18:30:00,
2013-01-14 13:40:00,58.7,48.9,30.09,West,273,5.0,14.0,70,0.00,,,0.00,Wunderground v.1.13,2013-01-14 18:40:00,
2013-01-14 13:45:00,58.7,48.9,30.09,North,5,6.0,6.0,70,0.00,,,0.00,Wunderground v.1.13,2013-01-14 18:45:00,
2013-01-14 13:55:00,58.3,48.6,30.09,WNW,302,6.0,11.0,70,0.00,,,0.00,Wunderground v.1.13,2013-01-14 18:55:00,
2013-01-14 14:05:00,58.0,48.6,30.09,NW,306,5.0,5.0,71,0.00,,,0.00,Wunderground v.1.13,2013-01-14 19:05:00,
2013-01-14 14:10:00,57.8,48.5,30.09,WNW,298,4.0,4.0,71,0.00,,,0.00,Wunderground v.1.13,2013-01-14 19:10:00,
2013-01-14 14:20:00,57.8,48.5,30.10,NW,317,3.0,3.0,71,0.00,,,0.00,Wunderground v.1.13,2013-01-14 19:20:00,
2013-01-14 14:30:00,58.0,48.3,30.12,West,271,4.0,4.0,70,0.00,,,0.00,Wunderground v.1.13,2013-01-14 19:30:00,
2013-01-14 14:40:00,57.8,48.1,30.14,WNW,303,3.0,11.0,70,0.00,,,0.00,Wunderground v.1.13,2013-01-14 19:40:00,
2013-01-14 14:45:00,57.6,47.9,30.13,West,271,4.0,4.0,70,0.00,,,0.00,Wunderground v.1.13,2013-01-14 19:45:00,
2013-01-14 14:50:00,57.5,48.2,30.13,West,275,4.0,10.0,71,0.00,,,0.00,Wunderground v.1.13,2013-01-14 19:50:00,
2013-01-14 15:00:00,57.0,46.9,30.11,WNW,289,5.0,5.0,69,0.00,,,0.00,Wunderground v.1.13,2013-01-14 20:00:00,
2013-01-14 15:10:00,56.9,47.2,30.12,West,279,4.0,4.0,70,0.00,,,0.00,Wunderground v.1.13,2013-01-14 20:10:00,
2013-01-14 15:15:00,56.9,46.8,30.11,NNE,28,3.0,3.0,69,0.00,,,0.00,Wunderground v.1.13,2013-01-14 20:15:00,
2013-01-14 15:25:00,56.7,46.6,30.12,WNW,295,2.0,10.0,69,0.00,,,0.00,Wunderground v.1.13,2013-01-14 20:25:00,
2013-01-14 15:35:00,56.6,46.9,30.13,NW,311,2.0,10.0,70,0.00,,,0.00,Wunderground v.1.13,2013-01-14 20:35:00,
2013-01-14 15:40:00,56.6,46.5,30.14,NW,307,2.0,10.0,69,0.00,,,0.00,Wunderground v.1.13,2013-01-14 20:40:00,
2013-01-14 15:50:00,56.5,46.1,30.14,NW,304,3.0,7.0,68,0.00,,,0.00,Wunderground v.1.13,2013-01-14 20:50:00,
2013-01-14 16:00:00,56.3,45.9,30.13,NW,304,2.0,7.0,68,0.00,,,0.00,Wunderground v.1.13,2013-01-14 21:00:00,
2013-01-14 16:05:00,56.2,45.4,30.14,North,350,2.0,2.0,67,0.00,,,0.00,Wunderground v.1.13,2013-01-14 21:05:00,
2013-01-14 16:15:00,56.0,44.4,30.13,NNE,22,1.0,7.0,65,0.00,,,0.00,Wunderground v.1.13,2013-01-14 21:15:00,
2013-01-14 16:25:00,55.9,43.9,30.14,North,360,2.0,6.0,64,0.00,,,0.00,Wunderground v.1.13,2013-01-14 21:25:00,
2013-01-14 16:35:00,55.7,42.5,30.15,NW,311,2.0,5.0,61,0.00,,,0.00,Wunderground v.1.13,2013-01-14 21:35:00,
2013-01-14 16:40:00,55.6,41.9,30.16,NW,323,2.0,5.0,60,0.00,,,0.00,Wunderground v.1.13,2013-01-14 21:40:00,
2013-01-14 16:50:00,55.6,41.5,30.15,NNW,340,3.0,6.0,59,0.00,,,0.00,Wunderground v.1.13,2013-01-14 21:50:00,
2013-01-14 17:00:00,55.4,40.9,30.16,NNW,337,1.0,1.0,58,0.00,,,0.00,Wunderground v.1.13,2013-01-14 22:00:00,
2013-01-14 17:05:00,55.4,41.3,30.16,WNW,296,2.0,6.0,59,0.00,,,0.00,Wunderground v.1.13,2013-01-14 22:05:00,
2013-01-14 17:15:00,55.3,41.2,30.16,NW,310,2.0,6.0,59,0.00,,,0.00,Wunderground v.1.13,2013-01-14 22:15:00,
2013-01-14 17:25:00,55.1,41.0,30.17,NW,326,1.0,1.0,59,0.00,,,0.00,Wunderground v.1.13,2013-01-14 22:25:00,
2013-01-14 17:30:00,55.0,40.9,30.17,WNW,299,1.0,5.0,59,0.00,,,0.00,Wunderground v.1.13,2013-01-14 22:30:00,
2013-01-14 17:35:00,55.0,40.9,30.17,North,349,1.0,4.0,59,0.00,,,0.00,Wunderground v.1.13,2013-01-14 22:35:00,
2013-01-14 17:45:00,54.7,40.6,30.16,NNW,342,0.0,4.0,59,0.00,,,0.00,Wunderground v.1.13,2013-01-14 22:45:00,
2013-01-14 17:55:00,54.5,40.0,30.16,NNW,347,2.0,5.0,58,0.00,,,0.00,Wunderground v.1.13,2013-01-14 22:55:00,
2013-01-14 18:00:00,54.5,39.6,30.17,NW,325,1.0,5.0,57,0.00,,,0.00,Wunderground v.1.13,2013-01-14 23:00:00,
2013-01-14 18:10:00,54.2,39.7,30.17,NW,324,0.0,5.0,58,0.00,,,0.00,Wunderground v.1.13,2013-01-14 23:10:00,
2013-01-14 18:15:00,54.2,38.8,30.18,WNW,294,1.0,1.0,56,0.00,,,0.00,Wunderground v.1.13,2013-01-14 23:15:00,
2013-01-14 18:25:00,54.1,37.8,30.18,NW,311,2.0,5.0,54,0.00,,,0.00,Wunderground v.1.13,2013-01-14 23:25:00,
2013-01-14 18:35:00,53.8,37.1,30.18,NNW,328,1.0,8.0,53,0.00,,,0.00,Wunderground v.1.13,2013-01-14 23:35:00,
2013-01-14 18:45:00,53.5,33.7,30.17,NNW,340,2.0,2.0,47,0.00,,,0.00,Wunderground v.1.13,2013-01-14 23:45:00,
2013-01-14 18:50:00,53.3,34.1,30.18,NNW,330,2.0,9.0,48,0.00,,,0.00,Wunderground v.1.13,2013-01-14 23:50:00,
2013-01-14 19:00:00,53.1,32.8,30.18,North,9,3.0,3.0,46,0.00,,,0.00,Wunderground v.1.13,2013-01-15 00:00:00,
2013-01-14 19:10:00,52.9,32.7,30.20,North,355,3.0,3.0,46,0.00,,,0.00,Wunderground v.1.13,2013-01-15 00:10:00,
2013-01-14 19:15:00,52.8,32.6,30.20,NNW,342,3.0,9.0,46,0.00,,,0.00,Wunderground v.1.13,2013-01-15 00:15:00,
2013-01-14 19:25:00,52.5,32.8,30.22,WNW,282,4.0,8.0,47,0.00,,,0.00,Wunderground v.1.13,2013-01-15 00:25:00,
2013-01-14 19:30:00,52.3,32.6,30.22,WNW,298,4.0,8.0,47,0.00,,,0.00,Wunderground v.1.13,2013-01-15 00:30:00,
2013-01-14 19:35:00,52.2,31.5,30.22,NNW,327,4.0,12.0,45,0.00,,,0.00,Wunderground v.1.13,2013-01-15 00:35:00,
2013-01-14 19:45:00,51.9,30.6,30.22,NNW,331,5.0,5.0,44,0.00,,,0.00,Wunderground v.1.13,2013-01-15 00:45:00,
2013-01-14 19:55:00,51.6,30.4,30.22,WNW,298,4.0,4.0,44,0.00,,,0.00,Wunderground v.1.13,2013-01-15 00:55:00,
2013-01-14 20:05:00,50.7,33.7,30.23,NW,304,4.0,4.0,52,0.10,,,0.02,Wunderground v.1.13,2013-01-15 01:05:00,
2013-01-14 20:15:00,49.4,35.2,30.24,WNW,299,4.0,11.0,58,0.20,,,0.04,Wunderground v.1.13,2013-01-15 01:15:00,
2013-01-14 20:20:00,48.5,35.2,30.25,WNW,301,5.0,5.0,60,0.07,,,0.04,Wunderground v.1.13,2013-01-15 01:20:00,
2013-01-14 20:25:00,47.9,35.5,30.24,NNW,340,3.0,3.0,62,0.05,,,0.04,Wunderground v.1.13,2013-01-15 01:25:00,
2013-01-14 20:35:00,47.7,34.9,30.24,NNW,335,2.0,10.0,61,0.00,,,0.05,Wunderground v.1.13,2013-01-15 01:35:00,
2013-01-14 20:40:00,47.6,35.2,30.23,West,279,3.0,10.0,62,0.13,,,0.06,Wunderground v.1.13,2013-01-15 01:40:00,
2013-01-14 20:50:00,46.8,36.0,30.24,NW,315,2.0,9.0,66,0.12,,,0.08,Wunderground v.1.13,2013-01-15 01:50:00,
2013-01-14 21:00:00,45.8,38.0,30.24,NW,315,0.0,9.0,74,0.08,,,0.09,Wunderground v.1.13,2013-01-15 02:00:00,
2013-01-14 21:05:00,45.4,38.3,30.24,NW,315,0.0,3.0,76,0.05,,,0.09,Wunderground v.1.13,2013-01-15 02:05:00,
2013-01-14 21:15:00,45.2,37.1,30.24,NW,316,1.0,3.0,73,0.00,,,0.09,Wunderground v.1.13,2013-01-15 02:15:00,
2013-01-14 21:25:00,45.8,35.8,30.25,North,351,2.0,9.0,68,0.00,,,0.10,Wunderground v.1.13,2013-01-15 02:25:00,
2013-01-14 21:35:00,46.2,33.5,30.26,NW,309,3.0,3.0,61,0.00,,,0.10,Wunderground v.1.13,2013-01-15 02:35:00,
2013-01-14 21:40:00,46.2,33.5,30.26,WNW,298,2.0,9.0,61,0.00,,,0.10,Wunderground v.1.13,2013-01-15 02:40:00,
2013-01-14 21:50:00,46.5,31.6,30.25,NW,304,3.0,11.0,56,0.00,,,0.10,Wunderground v.1.13,2013-01-15 02:50:00,
2013-01-14 21:55:00,46.5,32.1,30.25,WNW,300,2.0,11.0,57,0.00,,,0.10,Wunderground v.1.13,2013-01-15 02:55:00,
2013-01-14 22:05:00,46.4,32.0,30.26,NW,315,4.0,9.0,57,0.00,,,0.10,Wunderground v.1.13,2013-01-15 03:05:00,
2013-01-14 22:10:00,46.4,32.0,30.25,NW,313,4.0,4.0,57,0.00,,,0.10,Wunderground v.1.13,2013-01-15 03:10:00,
2013-01-14 22:20:00,46.2,31.4,30.26,WNW,297,4.0,4.0,56,0.00,,,0.10,Wunderground v.1.13,2013-01-15 03:20:00,
2013-01-14 22:25:00,46.2,30.5,30.26,North,9,5.0,5.0,54,0.00,,,0.10,Wunderground v.1.13,2013-01-15 03:25:00,
2013-01-14 22:35:00,46.1,30.4,30.27,NNW,340,5.0,12.0,54,0.00,,,0.10,Wunderground v.1.13,2013-01-15 03:35:00,
2013-01-14 22:45:00,45.8,30.5,30.27,NNW,332,6.0,6.0,55,0.00,,,0.10,Wunderground v.1.13,2013-01-15 03:45:00,
2013-01-14 22:50:00,45.7,31.3,30.27,NNW,337,6.0,16.0,57,0.00,,,0.10,Wunderground v.1.13,2013-01-15 03:50:00,
2013-01-14 22:55:00,45.4,31.9,30.27,North,349,5.0,5.0,59,0.00,,,0.10,Wunderground v.1.13,2013-01-15 03:55:00,
2013-01-14 23:05:00,44.6,32.0,30.27,NW,306,5.0,14.0,61,0.00,,,0.10,Wunderground v.1.13,2013-01-15 04:05:00,
2013-01-14 23:10:00,44.3,32.5,30.27,WNW,303,5.0,14.0,63,0.00,,,0.10,Wunderground v.1.13,2013-01-15 04:10:00,
2013-01-14 23:20:00,43.5,33.6,30.28,NW,316,6.0,13.0,68,0.00,,,0.11,Wunderground v.1.13,2013-01-15 04:20:00,
2013-01-14 23:25:00,42.8,33.7,30.28,NNW,347,7.0,7.0,70,0.08,,,0.12,Wunderground v.1.13,2013-01-15 04:25:00,
2013-01-14 23:35:00,42.1,35.1,30.29,NNW,332,4.0,15.0,76,0.09,,,0.13,Wunderground v.1.13,2013-01-15 04:35:00,
2013-01-14 23:45:00,41.3,35.3,30.28,NNW,336,4.0,15.0,79,0.10,,,0.15,Wunderground v.1.13,2013-01-15 04:45:00,
2013-01-14 23:55:00,40.8,35.7,30.27,WNW,284,3.0,3.0,82,0.12,,,0.17,Wunderground v.1.13,2013-01-15 04:55:00,